Préparation du vol

Réserver un ULM chez EFU                     Découvrir nos appareils                     Coordonnées de l'école

Available data for LFPN from the past hour

METAR
LFPN 190300Z AUTO 00000KT CAVOK 16/10 Q1017
LFPN 190230Z AUTO 00000KT CAVOK 17/10 Q1018
TAF
TAF LFPN 181700Z 1818/1903 03005KT CAVOK

Pour avoir des informations détaillée sur la météo à venir vous pouvez consulter Aeroweb

prevision des pluies

Nota : Heuro locale = heure CET

ATISATIS Étampes129.900
SOLÉtampes sol121.850
TWRÉtampes tour119.050
VDFÉtampes gonio119.050

OLIVIA

Outil en Ligne Intégré de Visualisation d'Informations Aéronautiques

OLIVIA